FREGAT DEB, 45888

Orbit data source: Space-Track

FREGAT DEB, 45888 is space debris in LEO originally from a launch on Mon, 18 Jul 2011 UTC launched from the Tyuratam Missile And Space Complex (TTMTR). Debris objects in space refer to the collection of defunct objects orbiting the Earth. Examples of debris include non-operational satellites, rocket bodies, and fragments generated from explosions, collisions, or faulty payload assembly.

Loading next visibility...
Identifier
45888, 2011-037DH
Orbit
LEO
Country
Flag of CISCIS
Related business
Manufacturer
Lavochkin
Mission
Spacecraft
Bus & Motor
Unknown
Mass
Unknown
Launch date (UTC)
2011-07-18 (15 years ago)
Launch vehicle
Unknown
Launch site
Tyuratam Missile And Space Complex (TTMTR)
Object type
Payload
Rocket body
Debris
Shape & HBR
Unknown shape, 0.1 m
Radar Cross Section
Small (<0.1 m²)

Expand to show TLE details & history
Last TLE update: 4 days ago

TLE from 4 days ago
0 FREGAT DEB
1 45888U 11037DH  26123.70419911  .00003986  00000-0  81816-3 0  9994
2 45888  51.4708 249.0483 1809357 256.1324  83.2615 11.46909594240454
Epoch: 2026-05-03T16:54Z
TLE epoch observation values (Epoch: 2026-05-03T16:54:02.803Z)
Latitude
-0.00003°
Longitude
133.93266°
Altitude
2,022.789 km
Speed
6.851 km/s
True Right ascension
16h 36m 11s
True Declination
0° 00' 00"
Sunlit
Object was in full shadow at epoch
Visualization orbit readout
Latitude
Unknown
Longitude
Unknown
Altitude
Unknown
Speed
Unknown
Apparent Right ascension
Unknown
Apparent Declination
Unknown
Sunlit
N/A
Visualization observer readout
Local Sidereal Time
17:10:43
Azimuth
Unknown
Elevation
Unknown
Doppler factor
Unknown
Orbital elements
Apogee altitude
3,431.045 km
Perigee altitude
425.24 km
Semi-major axis
8,306.28 km
Eccentricity
0.18094
Inclination
51.4708°
RAAN
249.0483°
Arg. of periapsis
256.1324°
True anomaly
103.95247°
Mean anomaly
83.2615°
Eccentric anomaly
93.60781°
Mean motion
2.86704 °/min
Orbital period
125.57 mins
BSTAR
0.00081816
Loading maneuver chart data...
Computing Atmospheric mass density...
Loading historical data...
Loading historical data...
Loading historical data...
Loading historical data...
Loading historical data...
Loading historical data...
Loading historical data...

Documentation

Showing up to 5 results
|